,,Stat6,,Stat2,,Stat8,,Stat9,,Stat10,,Wind1,,Wind1,
time,status,PA1M_AVG,status,PR1M_SUM,status,RH1M_AVG,status,SR1M_AVG,status,TA1M_AVG,status,W1dAve1m,status,W1sAve1m,
2004-11-08, 00:00:00,VALID,917.902,VALID,0,VALID,99.6188,VALID,0,VALID,20.5526,VALID,201,VALID,0.241122,
2004-11-08, 00:01:00,VALID,917.875,VALID,0,VALID,99.6302,VALID,0.0339617,VALID,20.5653,VALID,201,VALID,0.332031,
2004-11-08, 00:02:00,VALID,917.874,VALID,0,VALID,99.6111,VALID,0.0169808,VALID,20.5586,VALID,201,VALID,0.45149,
2004-11-08, 00:03:00,VALID,917.874,VALID,0,VALID,99.601,VALID,0.0169808,VALID,20.5459,VALID,202,VALID,0.245028,
2004-11-08, 00:04:00,VALID,917.884,VALID,0,VALID,99.6378,VALID,0.0169808,VALID,20.5529,VALID,202,VALID,0,
2004-11-08, 00:05:00,VALID,917.894,VALID,0,VALID,99.6404,VALID,0.0339617,VALID,20.5564,VALID,202,VALID,0.0822088,
2004-11-08, 00:06:00,VALID,917.91,VALID,0,VALID,99.6709,VALID,0.0679233,VALID,20.5322,VALID,202,VALID,0.111683,
2004-11-08, 00:07:00,VALID,917.928,VALID,0,VALID,99.7154,VALID,0,VALID,20.5424,VALID,202,VALID,0.0423329,
2004-11-08, 00:08:00,VALID,917.927,VALID,0,VALID,99.7561,VALID,0.0339617,VALID,20.5462,VALID,202,VALID,0,
2004-11-08, 00:09:00,VALID,917.923,VALID,0,VALID,99.807,VALID,0.0169808,VALID,20.5599,VALID,202,VALID,0.0172602,
2004-11-08, 00:10:00,VALID,917.919,VALID,0,VALID,99.8477,VALID,0.0169808,VALID,20.5693,VALID,202,VALID,0.179688,
2004-11-08, 00:11:00,VALID,917.916,VALID,0,VALID,99.8362,VALID,0.0509425,VALID,20.5621,VALID,202,VALID,0.0539253,
2004-11-08, 00:12:00,VALID,917.926,VALID,0,VALID,99.8845,VALID,0.0169808,VALID,20.5688,VALID,202,VALID,0,
2004-11-08, 00:13:00,VALID,917.922,VALID,0,VALID,99.8985,VALID,0.0339617,VALID,20.5914,VALID,202,VALID,0,
2004-11-08, 00:14:00,VALID,917.942,VALID,0,VALID,99.7739,VALID,0.0169808,VALID,20.5882,VALID,202,VALID,0,
2004-11-08, 00:15:00,VALID,917.928,VALID,0,VALID,99.751,VALID,0.0169808,VALID,20.5814,VALID,202,VALID,0,
2004-11-08, 00:16:00,VALID,917.914,VALID,0,VALID,99.8171,VALID,0.0509425,VALID,20.5842,VALID,202,VALID,0,
2004-11-08, 00:17:00,VALID,917.886,VALID,0,VALID,99.8477,VALID,0.0339617,VALID,20.5879,VALID,202,VALID,0,
2004-11-08, 00:18:00,VALID,917.869,VALID,0,VALID,99.9036,VALID,0.0509425,VALID,20.607,VALID,202,VALID,0.140244,
2004-11-08, 00:19:00,VALID,917.859,VALID,0,VALID,99.9886,VALID,0.0509425,VALID,20.6302,VALID,202,VALID,0.253646,
2004-11-08, 00:20:00,VALID,917.863,VALID,0,VALID,99.9466,VALID,0.0509425,VALID,20.6396,VALID,202,VALID,0.316584,
2004-11-08, 00:21:00,VALID,917.866,VALID,0,VALID,99.7663,VALID,0.0339617,VALID,20.6264,VALID,202,VALID,0,
2004-11-08, 00:22:00,VALID,917.861,VALID,0,VALID,99.7358,VALID,0.0509425,VALID,20.6331,VALID,202,VALID,0.0250355,
2004-11-08, 00:23:00,VALID,917.857,VALID,0,VALID,99.7421,VALID,0.0169808,VALID,20.6294,VALID,202,VALID,0.159091,
2004-11-08, 00:24:00,VALID,917.871,VALID,0,VALID,99.7574,VALID,0.0169808,VALID,20.6458,VALID,202,VALID,0.0644055,
2004-11-08, 00:25:00,VALID,917.852,VALID,0,VALID,99.7294,VALID,0.0339617,VALID,20.6619,VALID,202,VALID,0,
2004-11-08, 00:26:00,VALID,917.835,VALID,0,VALID,99.6061,VALID,0,VALID,20.649,VALID,202,VALID,0,
2004-11-08, 00:27:00,VALID,917.831,VALID,0,VALID,99.5336,VALID,0.0169808,VALID,20.646,VALID,202,VALID,0.0131944,
2004-11-08, 00:28:00,VALID,917.809,VALID,0,VALID,99.4903,VALID,0.0509425,VALID,20.6398,VALID,202,VALID,0.0208333,
2004-11-08, 00:29:00,VALID,917.801,VALID,0,VALID,99.4764,VALID,0,VALID,20.6304,VALID,202,VALID,0.0479651,
2004-11-08, 00:30:00,VALID,917.8,VALID,0,VALID,99.5565,VALID,0.0339617,VALID,20.6296,VALID,202,VALID,0.11752,
2004-11-08, 00:31:00,VALID,917.812,VALID,0,VALID,99.615,VALID,0,VALID,20.6654,VALID,202,VALID,0.0262957,
2004-11-08, 00:32:00,VALID,917.808,VALID,0,VALID,99.6493,VALID,0.0169808,VALID,20.6727,VALID,202,VALID,0.0259811,
2004-11-08, 00:33:00,VALID,917.807,VALID,0,VALID,99.6391,VALID,0.0169808,VALID,20.6786,VALID,202,VALID,0.00181686,
2004-11-08, 00:34:00,VALID,917.802,VALID,0,VALID,99.4573,VALID,0,VALID,20.656,VALID,202,VALID,0.00090843,
2004-11-08, 00:35:00,VALID,917.775,VALID,0,VALID,99.3072,VALID,0.0169808,VALID,20.6172,VALID,202,VALID,0,
2004-11-08, 00:36:00,VALID,917.772,VALID,0,VALID,99.2882,VALID,0.0169808,VALID,20.5976,VALID,202,VALID,0,
2004-11-08, 00:37:00,VALID,917.765,VALID,0,VALID,99.3085,VALID,0.0679233,VALID,20.6041,VALID,202,VALID,0,
2004-11-08, 00:38:00,VALID,917.761,VALID,0,VALID,99.3365,VALID,0.0509425,VALID,20.5909,VALID,202,VALID,0,
2004-11-08, 00:39:00,VALID,917.742,VALID,0,VALID,99.3797,VALID,0.0169808,VALID,20.5812,VALID,202,VALID,0,
2004-11-08, 00:40:00,VALID,917.728,VALID,0,VALID,99.4382,VALID,0.0169808,VALID,20.5879,VALID,202,VALID,0.0824855,
2004-11-08, 00:41:00,VALID,917.717,VALID,0,VALID,99.4433,VALID,0.0169808,VALID,20.568,VALID,203,VALID,0.300195,
2004-11-08, 00:42:00,VALID,917.708,VALID,0,VALID,99.47,VALID,0,VALID,20.5854,VALID,203,VALID,0.432594,
2004-11-08, 00:43:00,VALID,917.704,VALID,0,VALID,99.5348,VALID,0.0509425,VALID,20.5586,VALID,201,VALID,0.495821,
2004-11-08, 00:44:00,VALID,917.713,VALID,0,VALID,99.6162,VALID,0.0509425,VALID,20.5618,VALID,54,VALID,0.680259,
2004-11-08, 00:45:00,VALID,917.707,VALID,0,VALID,99.6862,VALID,0.0169808,VALID,20.5787,VALID,23,VALID,0.795058,
2004-11-08, 00:46:00,VALID,917.707,VALID,0,VALID,99.6849,VALID,0,VALID,20.5588,VALID,21,VALID,0.72745,
2004-11-08, 00:47:00,VALID,917.697,VALID,0,VALID,99.6391,VALID,0.0339617,VALID,20.5497,VALID,21,VALID,0.428757,
2004-11-08, 00:48:00,VALID,917.697,VALID,0,VALID,99.6811,VALID,0.0509425,VALID,20.53,VALID,21,VALID,0.43316,
2004-11-08, 00:49:00,VALID,917.692,VALID,0,VALID,99.718,VALID,0.0339617,VALID,20.5265,VALID,21,VALID,0.259146,
2004-11-08, 00:50:00,VALID,917.677,VALID,0,VALID,99.7141,VALID,0.0169808,VALID,20.5174,VALID,21,VALID,0.0743096,
2004-11-08, 00:51:00,VALID,917.69,VALID,0,VALID,99.7663,VALID,0.0509425,VALID,20.5106,VALID,21,VALID,0.0216619,
2004-11-08, 00:52:00,VALID,917.691,VALID,0,VALID,99.7917,VALID,0.0509425,VALID,20.4972,VALID,21,VALID,0.153161,
2004-11-08, 00:53:00,VALID,917.694,VALID,0,VALID,99.7917,VALID,0.0679233,VALID,20.494,VALID,21,VALID,0.0674716,
2004-11-08, 00:54:00,VALID,917.698,VALID,0,VALID,99.7803,VALID,0.0169808,VALID,20.4942,VALID,21,VALID,0.174653,
2004-11-08, 00:55:00,VALID,917.678,VALID,0,VALID,99.7141,VALID,0.0339617,VALID,20.4883,VALID,21,VALID,0.186756,
2004-11-08, 00:56:00,VALID,917.66,VALID,0,VALID,99.7103,VALID,0,VALID,20.4654,VALID,21,VALID,0.555618,
2004-11-08, 00:57:00,VALID,917.648,VALID,0,VALID,99.7319,VALID,0.0169808,VALID,20.4388,VALID,21,VALID,0.368118,
2004-11-08, 00:58:00,VALID,917.639,VALID,0,VALID,99.8337,VALID,0.0339617,VALID,20.4426,VALID,21,VALID,0.524148,
2004-11-08, 00:59:00,VALID,917.611,VALID,0,VALID,99.8693,VALID,0.0339617,VALID,20.4358,VALID,20,VALID,0.630078,
2004-11-08, 01:00:00,VALID,917.602,VALID,0,VALID,99.8591,VALID,0.0169808,VALID,20.4264,VALID,19,VALID,0.715588,
2004-11-08, 01:01:00,VALID,917.584,VALID,0,VALID,99.8019,VALID,0.0169808,VALID,20.4205,VALID,19,VALID,0.7859,
2004-11-08, 01:02:00,VALID,917.563,VALID,0,VALID,99.7854,VALID,0.0169808,VALID,20.3884,VALID,10,VALID,0.735054,
2004-11-08, 01:03:00,VALID,917.561,VALID,0,VALID,99.7828,VALID,0,VALID,20.3561,VALID,359,VALID,0.401296,
2004-11-08, 01:04:00,VALID,917.563,VALID,0,VALID,99.8489,VALID,0,VALID,20.323,VALID,359,VALID,0.0994318,
2004-11-08, 01:05:00,VALID,917.575,VALID,0,VALID,99.9341,VALID,0.0339617,VALID,20.3106,VALID,359,VALID,0.0331597,
2004-11-08, 01:06:00,VALID,917.586,VALID,0,VALID,99.999,VALID,0,VALID,20.3141,VALID,359,VALID,0.161632,
2004-11-08, 01:07:00,VALID,917.57,VALID,0,VALID,100,VALID,0,VALID,20.3168,VALID,359,VALID,0.33505,
2004-11-08, 01:08:00,VALID,917.55,VALID,0,VALID,100,VALID,0,VALID,20.3332,VALID,359,VALID,0.398793,
2004-11-08, 01:09:00,VALID,917.524,VALID,0,VALID,100,VALID,0,VALID,20.3241,VALID,359,VALID,0.280705,
2004-11-08, 01:10:00,VALID,917.487,VALID,0,VALID,100,VALID,0,VALID,20.3007,VALID,359,VALID,0.14098,
2004-11-08, 01:11:00,VALID,917.445,VALID,0,VALID,100,VALID,0,VALID,20.3176,VALID,359,VALID,0.15718,
2004-11-08, 01:12:00,VALID,917.414,VALID,0,VALID,100,VALID,0,VALID,20.3305,VALID,359,VALID,0.129261,
2004-11-08, 01:13:00,VALID,917.397,VALID,0,VALID,100,VALID,0,VALID,20.3362,VALID,359,VALID,0.321265,
2004-11-08, 01:14:00,VALID,917.367,VALID,0,VALID,100,VALID,-0.0169808,VALID,20.3332,VALID,359,VALID,0.380962,
2004-11-08, 01:15:00,VALID,917.362,VALID,0,VALID,100,VALID,0,VALID,20.3365,VALID,14,VALID,0.575868,
2004-11-08, 01:16:00,VALID,917.349,VALID,0,VALID,100,VALID,0,VALID,20.3367,VALID,25,VALID,0.280523,
2004-11-08, 01:17:00,VALID,917.334,VALID,0,VALID,100,VALID,-0.0169808,VALID,20.3338,VALID,25,VALID,0,
2004-11-08, 01:18:00,VALID,917.319,VALID,0,VALID,100,VALID,-0.0169808,VALID,20.3335,VALID,25,VALID,0,
2004-11-08, 01:19:00,VALID,917.305,VALID,0,VALID,100,VALID,0,VALID,20.3394,VALID,25,VALID,0,
2004-11-08, 01:20:00,VALID,917.292,VALID,0,VALID,100,VALID,0,VALID,20.3497,VALID,25,VALID,0,
2004-11-08, 01:21:00,VALID,917.269,VALID,0,VALID,100,VALID,0,VALID,20.3623,VALID,25,VALID,0.107558,
2004-11-08, 01:22:00,VALID,917.267,VALID,0,VALID,100,VALID,0.0169808,VALID,20.3792,VALID,25,VALID,0.280231,
2004-11-08, 01:23:00,VALID,917.267,VALID,0,VALID,100,VALID,0,VALID,20.3785,VALID,25,VALID,0.197976,
2004-11-08, 01:24:00,VALID,917.258,VALID,0,VALID,100,VALID,0,VALID,20.3723,VALID,25,VALID,0.149891,
2004-11-08, 01:25:00,VALID,917.245,VALID,0,VALID,100,VALID,0,VALID,20.3628,VALID,26,VALID,0.305469,
2004-11-08, 01:26:00,VALID,917.224,VALID,0,VALID,100,VALID,0,VALID,20.33,VALID,39,VALID,0.415698,
2004-11-08, 01:27:00,VALID,917.184,VALID,0,VALID,100,VALID,0,VALID,20.3203,VALID,39,VALID,0.100675,
2004-11-08, 01:28:00,VALID,917.154,VALID,0,VALID,100,VALID,0,VALID,20.3303,VALID,39,VALID,0.0459872,
2004-11-08, 01:29:00,VALID,917.126,VALID,0,VALID,100,VALID,0,VALID,20.3211,VALID,39,VALID,0,
2004-11-08, 01:30:00,VALID,917.109,VALID,0,VALID,100,VALID,0,VALID,20.3139,VALID,39,VALID,0.00093006,
2004-11-08, 01:31:00,VALID,917.083,VALID,0,VALID,100,VALID,0.0169808,VALID,20.3206,VALID,39,VALID,0.164063,
2004-11-08, 01:32:00,VALID,917.057,VALID,0,VALID,100,VALID,0.0169808,VALID,20.294,VALID,39,VALID,0.308333,
2004-11-08, 01:33:00,VALID,917.055,VALID,0,VALID,100,VALID,0.0169808,VALID,20.259,VALID,252,VALID,0.518714,
2004-11-08, 01:34:00,VALID,917.058,VALID,0,VALID,100,VALID,0.0169808,VALID,20.2396,VALID,235,VALID,0.28452,
2004-11-08, 01:35:00,VALID,917.05,VALID,0,VALID,100,VALID,0,VALID,20.2267,VALID,241,VALID,0.671512,
2004-11-08, 01:36:00,VALID,917.046,VALID,0,VALID,100,VALID,0,VALID,20.1978,VALID,239,VALID,0.53125,
2004-11-08, 01:37:00,VALID,917.04,VALID,0,VALID,100,VALID,0,VALID,20.1876,VALID,209,VALID,0.215298,
2004-11-08, 01:38:00,VALID,917.045,VALID,0,VALID,100,VALID,0.0169808,VALID,20.1884,VALID,209,VALID,0.0171875,
2004-11-08, 01:39:00,VALID,917.023,VALID,0,VALID,100,VALID,0,VALID,20.1817,VALID,240,VALID,0.460392,
2004-11-08, 01:40:00,VALID,917.016,VALID,0,VALID,100,VALID,0,VALID,20.1757,VALID,247,VALID,0.405869,
2004-11-08, 01:41:00,VALID,916.996,VALID,0,VALID,100,VALID,0,VALID,20.1623,VALID,251,VALID,0.350291,
2004-11-08, 01:42:00,VALID,917.007,VALID,0,VALID,100,VALID,-0.0169808,VALID,20.1559,VALID,251,VALID,0.0642149,
2004-11-08, 01:43:00,VALID,916.989,VALID,0,VALID,100,VALID,0,VALID,20.1591,VALID,250,VALID,0.297057,
2004-11-08, 01:44:00,VALID,916.998,VALID,0,VALID,100,VALID,0.0169808,VALID,20.1462,VALID,247,VALID,0.502486,
2004-11-08, 01:45:00,VALID,916.988,VALID,0,VALID,100,VALID,0,VALID,20.1303,VALID,247,VALID,0.0950218,
2004-11-08, 01:46:00,VALID,916.966,VALID,0,VALID,100,VALID,0.0339617,VALID,20.1397,VALID,249,VALID,0.164595,
2004-11-08, 01:47:00,VALID,916.957,VALID,0,VALID,100,VALID,0,VALID,20.1658,VALID,340,VALID,0.512718,
2004-11-08, 01:48:00,VALID,916.931,VALID,0,VALID,100,VALID,0,VALID,20.1462,VALID,34,VALID,0.775347,
2004-11-08, 01:49:00,VALID,916.917,VALID,0,VALID,100,VALID,0,VALID,20.1362,VALID,18,VALID,0.820313,
2004-11-08, 01:50:00,VALID,916.905,VALID,0,VALID,100,VALID,-0.0169808,VALID,20.1491,VALID,348,VALID,0.331845,
2004-11-08, 01:51:00,VALID,916.883,VALID,0,VALID,100,VALID,0,VALID,20.1499,VALID,309,VALID,0.298549,
2004-11-08, 01:52:00,VALID,916.852,VALID,0,VALID,100,VALID,-0.0339617,VALID,20.1238,VALID,248,VALID,0.307927,
2004-11-08, 01:53:00,VALID,916.841,VALID,0,VALID,100,VALID,0,VALID,20.1136,VALID,271,VALID,0.141226,
2004-11-08, 01:54:00,VALID,916.836,VALID,0,VALID,100,VALID,-0.0169808,VALID,20.1308,VALID,279,VALID,0,
2004-11-08, 01:55:00,VALID,916.841,VALID,0,VALID,100,VALID,-0.0169808,VALID,20.137,VALID,225,VALID,0.0779345,
2004-11-08, 01:56:00,VALID,916.833,VALID,0,VALID,100,VALID,-0.0169808,VALID,20.1432,VALID,221,VALID,0.0138081,
2004-11-08, 01:57:00,VALID,916.838,VALID,0,VALID,100,VALID,0,VALID,20.1233,VALID,221,VALID,0.0272529,
2004-11-08, 01:58:00,VALID,916.834,VALID,0,VALID,100,VALID,0,VALID,20.1198,VALID,221,VALID,0.00093006,
2004-11-08, 01:59:00,VALID,916.806,VALID,0,VALID,100,VALID,0,VALID,20.1397,VALID,221,VALID,0.0925164,
2004-11-08, 02:00:00,VALID,916.781,VALID,0,VALID,100,VALID,0,VALID,20.1494,VALID,221,VALID,0.00639205,
2004-11-08, 02:01:00,VALID,916.746,VALID,0,VALID,100,VALID,0.0169808,VALID,20.169,VALID,221,VALID,0,
2004-11-08, 02:02:00,VALID,916.714,VALID,0,VALID,100,VALID,0.0169808,VALID,20.1819,VALID,221,VALID,0.01875,
2004-11-08, 02:03:00,VALID,916.687,VALID,0,VALID,100,VALID,0.0169808,VALID,20.1661,VALID,221,VALID,0.00240385,
2004-11-08, 02:04:00,VALID,916.656,VALID,0,VALID,100,VALID,0.0509425,VALID,20.1489,VALID,221,VALID,0.0285823,
2004-11-08, 02:05:00,VALID,916.625,VALID,0,VALID,99.9176,VALID,0.0339617,VALID,20.1365,VALID,291,VALID,0.384673,
2004-11-08, 02:06:00,VALID,916.621,VALID,0,VALID,99.8311,VALID,0.0339617,VALID,20.1206,VALID,309,VALID,0.103516,
2004-11-08, 02:07:00,VALID,916.589,VALID,0,VALID,99.8108,VALID,0.0339617,VALID,20.1173,VALID,309,VALID,0.0372456,
2004-11-08, 02:08:00,VALID,916.56,VALID,0,VALID,99.821,VALID,0.0169808,VALID,20.1074,VALID,309,VALID,0.00101902,
2004-11-08, 02:09:00,VALID,916.542,VALID,0,VALID,99.8413,VALID,0.0339617,VALID,20.1173,VALID,309,VALID,0.0476017,
2004-11-08, 02:10:00,VALID,916.526,VALID,0,VALID,99.9112,VALID,0.0509425,VALID,20.1434,VALID,309,VALID,0.215892,
2004-11-08, 02:11:00,VALID,916.531,VALID,0,VALID,99.9036,VALID,0.0169808,VALID,20.1564,VALID,316,VALID,0.358285,
2004-11-08, 02:12:00,VALID,916.534,VALID,0,VALID,99.8998,VALID,0.0169808,VALID,20.1529,VALID,352,VALID,0.473704,
2004-11-08, 02:13:00,VALID,916.556,VALID,0,VALID,99.9367,VALID,0.0169808,VALID,20.1658,VALID,352,VALID,0.268169,
2004-11-08, 02:14:00,VALID,916.567,VALID,0,VALID,99.943,VALID,0.0339617,VALID,20.169,VALID,352,VALID,0.238839,
2004-11-08, 02:15:00,VALID,916.559,VALID,0,VALID,99.9265,VALID,0.0339617,VALID,20.1683,VALID,352,VALID,0.386083,
2004-11-08, 02:16:00,VALID,916.562,VALID,0,VALID,99.91,VALID,-0.0339617,VALID,20.1738,VALID,355,VALID,0.397529,
2004-11-08, 02:17:00,VALID,916.56,VALID,0,VALID,99.8706,VALID,-0.0339617,VALID,20.18,VALID,355,VALID,0.251143,
2004-11-08, 02:18:00,VALID,916.561,VALID,0,VALID,99.9036,VALID,-0.101885,VALID,20.1934,VALID,355,VALID,0.103379,
2004-11-08, 02:19:00,VALID,916.558,VALID,0,VALID,99.8845,VALID,-0.0509425,VALID,20.2061,VALID,355,VALID,0.148828,
2004-11-08, 02:20:00,VALID,916.555,VALID,0,VALID,99.7854,VALID,-0.0849042,VALID,20.1894,VALID,355,VALID,0.128906,
2004-11-08, 02:21:00,VALID,916.555,VALID,0,VALID,99.737,VALID,-0.0509425,VALID,20.2029,VALID,355,VALID,0.0304487,
2004-11-08, 02:22:00,VALID,916.553,VALID,0,VALID,99.7243,VALID,-0.0679233,VALID,20.1994,VALID,355,VALID,0,
2004-11-08, 02:23:00,VALID,916.547,VALID,0,VALID,99.6658,VALID,-0.0509425,VALID,20.2061,VALID,355,VALID,0,
2004-11-08, 02:24:00,VALID,916.53,VALID,0,VALID,99.6556,VALID,-0.0679233,VALID,20.2128,VALID,355,VALID,0.167289,
2004-11-08, 02:25:00,VALID,916.514,VALID,0,VALID,99.587,VALID,-0.101885,VALID,20.1899,VALID,355,VALID,0.0779474,
2004-11-08, 02:26:00,VALID,916.506,VALID,0,VALID,99.5412,VALID,-0.101885,VALID,20.1904,VALID,355,VALID,0.0456032,
2004-11-08, 02:27:00,VALID,916.496,VALID,0,VALID,99.4903,VALID,-0.0849042,VALID,20.1641,VALID,355,VALID,0.191311,
2004-11-08, 02:28:00,VALID,916.496,VALID,0,VALID,99.5107,VALID,-0.101885,VALID,20.1646,VALID,355,VALID,0.317187,
2004-11-08, 02:29:00,VALID,916.485,VALID,0,VALID,99.5603,VALID,-0.0849042,VALID,20.1512,VALID,355,VALID,0.143895,
2004-11-08, 02:30:00,VALID,916.462,VALID,0,VALID,99.6188,VALID,-0.101885,VALID,20.1646,VALID,355,VALID,0.00360577,
2004-11-08, 02:31:00,VALID,916.426,VALID,0,VALID,99.6874,VALID,-0.0849042,VALID,20.1676,VALID,355,VALID,0,
2004-11-08, 02:32:00,VALID,916.413,VALID,0,VALID,99.7205,VALID,-0.0679233,VALID,20.1735,VALID,355,VALID,0,
2004-11-08, 02:33:00,VALID,916.39,VALID,0,VALID,99.7625,VALID,-0.0509425,VALID,20.1964,VALID,355,VALID,0,
2004-11-08, 02:34:00,VALID,916.387,VALID,0,VALID,99.7421,VALID,-0.0849042,VALID,20.2061,VALID,355,VALID,0,
2004-11-08, 02:35:00,VALID,916.392,VALID,0,VALID,99.6862,VALID,-0.0509425,VALID,20.2193,VALID,355,VALID,0.135356,
2004-11-08, 02:36:00,VALID,916.408,VALID,0,VALID,99.6556,VALID,-0.0679233,VALID,20.2093,VALID,355,VALID,0.00639205,
2004-11-08, 02:37:00,VALID,916.412,VALID,0,VALID,99.6073,VALID,-0.0849042,VALID,20.1897,VALID,355,VALID,0,
2004-11-08, 02:38:00,VALID,916.412,VALID,0,VALID,99.6378,VALID,-0.0339617,VALID,20.1966,VALID,355,VALID,0,
2004-11-08, 02:39:00,VALID,916.401,VALID,0,VALID,99.6468,VALID,-0.0679233,VALID,20.2034,VALID,355,VALID,0,
2004-11-08, 02:40:00,VALID,916.415,VALID,0,VALID,99.676,VALID,-0.0509425,VALID,20.1996,VALID,355,VALID,0,
2004-11-08, 02:41:00,VALID,916.425,VALID,0,VALID,99.7587,VALID,-0.0509425,VALID,20.2155,VALID,355,VALID,0.119271,
2004-11-08, 02:42:00,VALID,916.428,VALID,0,VALID,99.7943,VALID,-0.101885,VALID,20.2416,VALID,355,VALID,0.125,
2004-11-08, 02:43:00,VALID,916.438,VALID,0,VALID,99.6671,VALID,-0.101885,VALID,20.2225,VALID,355,VALID,0.423295,
2004-11-08, 02:44:00,VALID,916.459,VALID,0,VALID,99.6328,VALID,-0.0679233,VALID,20.2031,VALID,355,VALID,0.205124,
2004-11-08, 02:45:00,VALID,916.465,VALID,0,VALID,99.7345,VALID,-0.0679233,VALID,20.1961,VALID,11,VALID,0.517187,
2004-11-08, 02:46:00,VALID,916.484,VALID,0,VALID,99.7726,VALID,-0.0679233,VALID,20.2158,VALID,20,VALID,0.580966,
2004-11-08, 02:47:00,VALID,916.481,VALID,0,VALID,99.7663,VALID,-0.0169808,VALID,20.2163,VALID,20,VALID,0.378815,
2004-11-08, 02:48:00,VALID,916.486,VALID,0,VALID,99.7612,VALID,-0.0509425,VALID,20.2063,VALID,20,VALID,0.127725,
2004-11-08, 02:49:00,VALID,916.468,VALID,0,VALID,99.7904,VALID,-0.0679233,VALID,20.2093,VALID,20,VALID,0,
2004-11-08, 02:50:00,VALID,916.462,VALID,0,VALID,99.7307,VALID,-0.0339617,VALID,20.2029,VALID,20,VALID,0.00603693,
2004-11-08, 02:51:00,VALID,916.442,VALID,0,VALID,99.6048,VALID,-0.0679233,VALID,20.1862,VALID,20,VALID,0.0760417,
2004-11-08, 02:52:00,VALID,916.43,VALID,0,VALID,99.5285,VALID,-0.0339617,VALID,20.1805,VALID,20,VALID,0.0199855,
2004-11-08, 02:53:00,VALID,916.424,VALID,0,VALID,99.5158,VALID,-0.0339617,VALID,20.1598,VALID,20,VALID,0.00114329,
2004-11-08, 02:54:00,VALID,916.425,VALID,0,VALID,99.5997,VALID,-0.0849042,VALID,20.1899,VALID,20,VALID,0.0299479,
2004-11-08, 02:55:00,VALID,916.429,VALID,0,VALID,99.6493,VALID,-0.0339617,VALID,20.2125,VALID,20,VALID,0.114583,
2004-11-08, 02:56:00,VALID,916.42,VALID,0,VALID,99.6887,VALID,-0.0679233,VALID,20.2188,VALID,20,VALID,0.153088,
2004-11-08, 02:57:00,VALID,916.405,VALID,0,VALID,99.6938,VALID,-0.0509425,VALID,20.2252,VALID,20,VALID,0.00799419,
2004-11-08, 02:58:00,VALID,916.396,VALID,0,VALID,99.648,VALID,-0.0339617,VALID,20.2379,VALID,20,VALID,0.00304878,
2004-11-08, 02:59:00,VALID,916.38,VALID,0,VALID,99.5997,VALID,-0.0679233,VALID,20.2346,VALID,20,VALID,0,
2004-11-08, 03:00:00,VALID,916.354,VALID,0,VALID,99.5628,VALID,-0.0679233,VALID,20.2416,VALID,20,VALID,0.109756,
2004-11-08, 03:01:00,VALID,916.338,VALID,0,VALID,99.5081,VALID,-0.0679233,VALID,20.221,VALID,20,VALID,0.00218023,
2004-11-08, 03:02:00,VALID,916.317,VALID,0,VALID,99.4916,VALID,-0.0169808,VALID,20.2148,VALID,20,VALID,0.072311,
2004-11-08, 03:03:00,VALID,916.312,VALID,0,VALID,99.5069,VALID,-0.0169808,VALID,20.2247,VALID,20,VALID,0.351935,
2004-11-08, 03:04:00,VALID,916.293,VALID,0,VALID,99.5005,VALID,-0.0339617,VALID,20.2217,VALID,20,VALID,0.303267,
2004-11-08, 03:05:00,VALID,916.276,VALID,0,VALID,99.5183,VALID,-0.0509425,VALID,20.2284,VALID,20,VALID,0.410069,
2004-11-08, 03:06:00,VALID,916.276,VALID,0,VALID,99.4509,VALID,-0.0509425,VALID,20.2182,VALID,20,VALID,0.361579,
2004-11-08, 03:07:00,VALID,916.266,VALID,0,VALID,99.3759,VALID,-0.0509425,VALID,20.1956,VALID,18,VALID,0.583507,
2004-11-08, 03:08:00,VALID,916.26,VALID,0,VALID,99.3327,VALID,-0.0339617,VALID,20.1797,VALID,18,VALID,0.224516,
2004-11-08, 03:09:00,VALID,916.261,VALID,0,VALID,99.3492,VALID,-0.0679233,VALID,20.1604,VALID,18,VALID,0.101172,
2004-11-08, 03:10:00,VALID,916.279,VALID,0,VALID,99.3454,VALID,-0.0339617,VALID,20.1278,VALID,18,VALID,0,
2004-11-08, 03:11:00,VALID,916.273,VALID,0,VALID,99.4585,VALID,-0.0169808,VALID,20.1345,VALID,18,VALID,0.0757068,
2004-11-08, 03:12:00,VALID,916.282,VALID,0,VALID,99.5234,VALID,-0.0509425,VALID,20.1313,VALID,18,VALID,0.00887784,
2004-11-08, 03:13:00,VALID,916.287,VALID,0,VALID,99.4942,VALID,-0.0169808,VALID,20.1253,VALID,18,VALID,0,
2004-11-08, 03:14:00,VALID,916.292,VALID,0,VALID,99.512,VALID,-0.0679233,VALID,20.092,VALID,18,VALID,0.0446671,
2004-11-08, 03:15:00,VALID,916.303,VALID,0,VALID,99.5743,VALID,-0.0339617,VALID,20.0828,VALID,18,VALID,0.153472,
2004-11-08, 03:16:00,VALID,916.299,VALID,0,VALID,99.6709,VALID,-0.0679233,VALID,20.0635,VALID,18,VALID,0.393359,
2004-11-08, 03:17:00,VALID,916.29,VALID,0,VALID,99.793,VALID,-0.101885,VALID,20.0572,VALID,27,VALID,0.551153,
2004-11-08, 03:18:00,VALID,916.301,VALID,0,VALID,99.8833,VALID,-0.0169808,VALID,20.0374,VALID,39,VALID,0.551136,
2004-11-08, 03:19:00,VALID,916.294,VALID,0,VALID,99.9494,VALID,-0.0169808,VALID,20.0344,VALID,39,VALID,0.359012,
2004-11-08, 03:20:00,VALID,916.314,VALID,0,VALID,99.9977,VALID,-0.0339617,VALID,20.0416,VALID,39,VALID,0.254542,
2004-11-08, 03:21:00,VALID,916.328,VALID,0,VALID,100,VALID,-0.0679233,VALID,20.0217,VALID,39,VALID,0.126453,
2004-11-08, 03:22:00,VALID,916.33,VALID,0,VALID,100,VALID,-0.0509425,VALID,20.0279,VALID,39,VALID,0.0404514,
2004-11-08, 03:23:00,VALID,916.325,VALID,0,VALID,100,VALID,-0.0679233,VALID,20.0282,VALID,39,VALID,0.00595238,
2004-11-08, 03:24:00,VALID,916.336,VALID,0,VALID,100,VALID,-0.0509425,VALID,20.0279,VALID,39,VALID,0,
2004-11-08, 03:25:00,VALID,916.331,VALID,0,VALID,100,VALID,-0.0509425,VALID,20.0115,VALID,39,VALID,0,
2004-11-08, 03:26:00,VALID,916.336,VALID,0,VALID,100,VALID,-0.0339617,VALID,20.0314,VALID,39,VALID,0,
2004-11-08, 03:27:00,VALID,916.326,VALID,0,VALID,100,VALID,-0.0169808,VALID,20.0148,VALID,39,VALID,0,
2004-11-08, 03:28:00,VALID,916.325,VALID,0,VALID,100,VALID,-0.0509425,VALID,20.0249,VALID,39,VALID,0,
2004-11-08, 03:29:00,VALID,916.316,VALID,0,VALID,100,VALID,-0.0339617,VALID,20.0242,VALID,39,VALID,0,
2004-11-08, 03:30:00,VALID,916.301,VALID,0,VALID,100,VALID,-0.0339617,VALID,20.0346,VALID,39,VALID,0,
2004-11-08, 03:31:00,VALID,916.287,VALID,0,VALID,100,VALID,-0.0169808,VALID,20.0379,VALID,39,VALID,0.0832122,
2004-11-08, 03:32:00,VALID,916.266,VALID,0,VALID,100,VALID,-0.0339617,VALID,20.0406,VALID,39,VALID,0.325462,
2004-11-08, 03:33:00,VALID,916.268,VALID,0,VALID,100,VALID,-0.0679233,VALID,20.0471,VALID,39,VALID,0.529615,
2004-11-08, 03:34:00,VALID,916.267,VALID,0,VALID,100,VALID,-0.0509425,VALID,20.051,VALID,39,VALID,0.41673,
2004-11-08, 03:35:00,VALID,916.289,VALID,0,VALID,100,VALID,-0.0679233,VALID,20.0376,VALID,39,VALID,0.230078,
2004-11-08, 03:36:00,VALID,916.299,VALID,0,VALID,99.9977,VALID,-0.0339617,VALID,20.015,VALID,39,VALID,0.0123047,